Regional Weather Roundup
Issued by NWS

Home | Current Version | Previous Version | Text Only | Print | Product List | Glossary On
Versions: 1 2 3 4 5 6 7 8 9 10 11 12 13 14 15 16 17 18 19 20 21 22 23 24 25 26 27 28 29 30 31 32 33 34 35 36 37 38 39 40 41 42 43 44 45 46 47 48 49 50
000
ASUS43 KLSX 240107
RWRMO

WEATHER SUMMARY FOR MISSOURI
NATIONAL WEATHER SERVICE SPRINGFIELD MO
800 PM CDT TUE SEP 23 2014

NOTE: "FAIR" INDICATES FEW OR NO CLOUDS BELOW 12,000 FEET WITH NO
       SIGNIFICANT WEATHER AND/OR OBSTRUCTIONS TO VISIBILITY.
       CURRENT SKY AND/OR WEATHER CONDITIONS ARE NOT AVAILABLE FOR
       CHILLICOTHE AND FARMINGTON.

MOZ001>031-035>038-043-044-053-054-240200-
...NORTHERN AND WESTERN MISSOURI...

CITY           SKY/WX    TMP DP  RH WIND       PRES   REMARKS
KANSAS CTY INT LGT RAIN  68  53  58 NE7       30.15S
KANSAS C DTWN  CLOUDY    70  51  51 SE10      30.13F
LEE`S SUMMIT   MOCLDY    67  51  56 VRB3      30.17R
ST JOSEPH      CLOUDY    67  53  61 E6        30.16R
CHILLICOTHE      N/A     67  53  61 CALM      30.19R
KIRKSVILLE     CLOUDY    61  51  70 SE6       30.21S

$$
MOZ066>068-077>081-088>096-101>105-240200-
...SOUTHWEST MISSOURI...

CITY           SKY/WX    TMP DP  RH WIND       PRES   REMARKS
SPRINGFIELD    PTCLDY    63  49  60 SE6       30.17S
JOPLIN         CLEAR     64  49  57 E6        30.16R

$$
MOZ032>034-039>042-045>050-055>058-069>072-240200-
...CENTRAL MISSOURI...

CITY           SKY/WX    TMP DP  RH WIND       PRES   REMARKS
COLUMBIA       MOCLDY    64  50  60 E5        30.19S
JEFFERSON CITY MOCLDY    65  48  54 SE5       30.18S
ROLLA          PTCLDY    63  48  58 E5        30.19S
SEDALIA        MOCLDY    65  51  60 E3        30.18S
WHITEMAN AFB   CLOUDY    65  53  67 SE3       30.17S
OSAGE BEACH    MOCLDY    63  46  55 E3        30.18R

$$
MOZ051-052-059>065-240200-
...EAST CENTRAL MISSOURI...

CITY           SKY/WX    TMP DP  RH WIND       PRES   REMARKS
ST LOUIS INTL  CLOUDY    67  50  54 E7        30.23S
SPIRIT OF STL  MOCLDY    61  56  83 CALM      30.21S
ST CHARLES     PTCLDY    62  57  83 CALM      30.22S

$$
MOZ072>076-082>087-097>100-106>115-240200-
...SOUTH CENTRAL AND SOUTHEAST MISSOURI...

CITY           SKY/WX    TMP DP  RH WIND       PRES   REMARKS
CAPE GIRARDEAU CLEAR     58  53  84 CALM      30.20S
FARMINGTON     CLEAR     59  48  67 NE5       30.24S
POPLAR BLUFF   CLEAR     59  52  77 CALM      30.19R
WEST PLAINS    PTCLDY    63  48  58 E3        30.22R

$$



USA.gov is the U.S. government's official web portal to all federal, state and local government web resources and services.